Weather History for Birmingham, AL

Change the Weather History Date:

Tuesday, July 2, 2013

  Actual Average Record
Temperature  
Mean Temperature 76 °F 80 °F  
Max Temperature 86 °F 90 °F 101 °F (1954)
Min Temperature 66 °F 71 °F 57 °F (1924)
Cooling Degree Days 11 15  
Month to date cooling degree days 23 30  
Year to date cooling degree days 709 694  
Since 1 June cooling degree days 444 412  
Growing Degree Days 26 (Base 50)    
Moisture  
Dew Point 63 °F    
Average Humidity 68    
Maximum Humidity 93    
Minimum Humidity 42    
Precipitation  
Precipitation 0.00 in 0.17 in 2.43 in (1989)
Month to date precipitation 0.00 0.33  
Year to date precipitation 39.17 28.68  
Sea Level Pressure  
Sea Level Pressure 29.98 in    
Wind  
Wind Speed 4 mph (West)    
Max Wind Speed 15 mph    
Max Gust Speed 21 mph    
Visibility 10 miles    
Events      
T = Trace of Precipitation, MM = Missing Value Source: NWS Daily Summary

Daily Weather History Graph

Daily Weather History Graph

Search for Another Location

Airport:

Trip Planner

Search our weather history database for the weather conditions in past years. The results will help you decide how hot, cold, wet, or windy it might be!

Date:

Astronomy

Jul. 02, 2013 Rise Set
Actual Time 5:41 AM CDT 8:01 PM CDT
Civil Twilight 5:12 AM CDT 8:29 PM CDT
Nautical Twilight 4:36 AM CDT 9:05 PM CDT
Astronomical Twilight 3:58 AM CDT 9:43 PM CDT
Moon 1:35 AM CDT (7/2) 3:21 PM CDT (7/2)
Length of Visible Light 15h 17m
Length of Day
14h 19m
Waning Crescent, 26% of the Moon is Illuminated
Jul 2
Waning Crescent
Jul 8
New
Jul 15
First Quarter
Jul 22
Full
Jul 29
Last Quarter

Hourly Weather History & Observations

Time (CDT) Temp. Heat Index Dew Point Humidity Pressure Visibility Wind Dir Wind Speed Gust Speed Precip Events Conditions
12:53 AM 71.1 °F - 63.0 °F 75% 29.91 in 10.0 mi Calm Calm - N/A   Clear
1:53 AM 69.1 °F - 64.0 °F 84% 29.91 in 10.0 mi Calm Calm - N/A   Scattered Clouds
2:53 AM 69.1 °F - 64.9 °F 87% 29.91 in 10.0 mi Calm Calm - N/A   Mostly Cloudy
3:53 AM 69.1 °F - 64.0 °F 84% 29.92 in 10.0 mi Calm Calm - N/A   Mostly Cloudy
4:53 AM 68.0 °F - 64.0 °F 87% 29.94 in 10.0 mi Calm Calm - N/A   Mostly Cloudy
5:53 AM 66.9 °F - 64.9 °F 93% 29.95 in 10.0 mi Calm Calm - N/A   Partly Cloudy
6:53 AM 70.0 °F - 64.9 °F 84% 29.97 in 9.0 mi WNW 4.6 mph - N/A   Scattered Clouds
7:53 AM 73.0 °F - 64.9 °F 76% 29.99 in 10.0 mi Calm Calm - N/A   Partly Cloudy
9:53 AM 78.1 °F - 64.0 °F 62% 30.00 in 10.0 mi Variable 3.5 mph - N/A   Partly Cloudy
10:53 AM 82.9 °F 83.7 °F 62.1 °F 49% 30.00 in 10.0 mi WSW 10.4 mph 16.1 mph N/A   Scattered Clouds
11:53 AM 82.0 °F 83.0 °F 62.1 °F 51% 30.00 in 10.0 mi SW 6.9 mph - N/A   Mostly Cloudy
12:53 PM 86.0 °F 86.1 °F 61.0 °F 43% 29.99 in 10.0 mi WSW 9.2 mph 20.7 mph N/A   Mostly Cloudy
1:53 PM 82.9 °F 83.7 °F 62.1 °F 49% 29.99 in 10.0 mi West 10.4 mph - N/A   Mostly Cloudy
2:53 PM 84.0 °F 84.4 °F 61.0 °F 46% 29.98 in 10.0 mi West 5.8 mph - N/A   Mostly Cloudy
3:53 PM 84.0 °F 84.0 °F 60.1 °F 44% 29.98 in 10.0 mi Variable 3.5 mph - N/A   Scattered Clouds
4:53 PM 84.0 °F 84.4 °F 61.0 °F 46% 29.97 in 10.0 mi WNW 10.4 mph - N/A   Scattered Clouds
5:53 PM 84.9 °F 85.0 °F 61.0 °F 44% 29.99 in 10.0 mi WNW 10.4 mph - N/A   Scattered Clouds
6:53 PM 84.0 °F 84.0 °F 60.1 °F 44% 30.01 in 10.0 mi WNW 9.2 mph - N/A   Scattered Clouds
7:53 PM 81.0 °F 81.6 °F 60.1 °F 49% 30.01 in 10.0 mi WNW 4.6 mph - N/A   Clear
8:53 PM 77.0 °F - 63.0 °F 62% 30.03 in 10.0 mi Calm Calm - N/A   Clear
9:53 PM 73.9 °F - 64.9 °F 73% 30.05 in 10.0 mi Calm Calm - N/A   Clear
10:53 PM 73.9 °F - 64.9 °F 73% 30.04 in 10.0 mi Calm Calm - N/A   Clear
11:53 PM 72.0 °F - 64.9 °F 78% 30.04 in 10.0 mi Calm Calm - N/A   Clear